Coldwater, MI

12:08 AM EDT on March 26, 2017 (GMT -0400)
Branch County Memorial

Weather History for KOEB - August, 2013

Change the Weather History Date:

Saturday, August 10, 2013

  Actual Average (KJYM) Record (KJYM)
Temperature  
Mean Temperature 66 °F -  
Max Temperature 74 °F 80 °F 90 °F (1949)
Min Temperature 57 °F 57 °F 39 °F (1972)
Growing Degree Days 16 (Base 50)    
Moisture  
Dew Point 57 °F    
Average Humidity 75    
Maximum Humidity 98    
Minimum Humidity 53    
Precipitation  
Precipitation 0.00 in - - ()
Sea Level Pressure  
Sea Level Pressure 30.10 in    
Wind  
Wind Speed 2 mph (NE)    
Max Wind Speed 8 mph    
Max Gust Speed -    
Visibility 10 miles    
Events      
Averages and records for this station are not official NWS values.
T = Trace of Precipitation, MM = Missing Value Source: NWS Daily Summary

Daily Weather History Graph

Daily Weather History Graph

Search for Another Location

Airport or City:

Trip Planner

Search our weather history database for the weather conditions in past years. The results will help you decide how hot, cold, wet, or windy it might be!

Date:

Astronomy

Aug. 10, 2013 Rise Set
Actual Time 6:43 AM EDT 8:47 PM EDT
Civil Twilight 6:12 AM EDT 9:17 PM EDT
Nautical Twilight 5:35 AM EDT 9:54 PM EDT
Astronomical Twilight 4:54 AM EDT 10:35 PM EDT
Moon 10:33 AM EDT (8/10) 10:22 PM EDT (8/10)
Length of Visible Light 15h 04m
Length of Day
14h 03m
Waxing Crescent, 14% of the Moon is Illuminated
Aug 10
Waxing Crescent
Aug 14
First Quarter
Aug 20
Full
Aug 28
Last Quarter
Sep 5
New

Hourly Weather History & Observations

Time (EDT) Temp. Dew Point Humidity Pressure Visibility Wind Dir Wind Speed Gust Speed Precip Events Conditions
12:15 AM 62.4 °F 61.3 °F 96% 30.04 in 10.0 mi Calm Calm - N/A   Overcast
12:34 AM 62.1 °F 61.2 °F 97% 30.04 in 10.0 mi Calm Calm - N/A   Overcast
12:55 AM 62.8 °F 61.3 °F 95% 30.05 in 10.0 mi Calm Calm - N/A   Overcast
1:15 AM 62.1 °F 61.0 °F 96% 30.06 in 10.0 mi Calm Calm - N/A   Mostly Cloudy
1:34 AM 61.5 °F 60.6 °F 97% 30.06 in 10.0 mi Calm Calm - N/A   Scattered Clouds
1:55 AM 60.8 °F 60.1 °F 97% 30.06 in 7.0 mi Calm Calm - N/A   Clear
2:14 AM 60.6 °F 59.9 °F 97% 30.06 in 7.0 mi Calm Calm - N/A   Clear
2:35 AM 60.4 °F 59.7 °F 97% 30.06 in 7.0 mi Calm Calm - N/A   Scattered Clouds
2:55 AM 60.8 °F 60.1 °F 97% 30.06 in 7.0 mi Calm Calm - N/A   Mostly Cloudy
3:14 AM 61.7 °F 61.2 °F 98% 30.07 in 7.0 mi Calm Calm - N/A   Overcast
3:35 AM 61.9 °F 61.0 °F 97% 30.07 in 7.0 mi Calm Calm - N/A   Overcast
3:55 AM 62.1 °F 61.0 °F 96% 30.07 in 10.0 mi Calm Calm - N/A   Overcast
4:14 AM 63.0 °F 61.7 °F 96% 30.08 in 10.0 mi NNE 4.6 mph - N/A   Overcast
4:35 AM 63.7 °F 62.1 °F 94% 30.08 in 10.0 mi NE 3.5 mph - N/A   Overcast
4:55 AM 63.9 °F 59.9 °F 87% 30.08 in 10.0 mi NNE 6.9 mph - N/A   Overcast
5:15 AM 63.5 °F 59.7 °F 87% 30.08 in 10.0 mi NE 5.8 mph - N/A   Overcast
5:35 AM 63.0 °F 59.2 °F 87% 30.08 in 10.0 mi ENE 4.6 mph - N/A   Mostly Cloudy
5:54 AM 63.1 °F 58.8 °F 86% 30.08 in 10.0 mi ENE 4.6 mph - N/A   Overcast
6:15 AM 62.8 °F 58.8 °F 87% 30.08 in 10.0 mi ENE 5.8 mph - N/A   Overcast
6:35 AM 62.6 °F 58.5 °F 86% 30.09 in 10.0 mi ENE 4.6 mph - N/A   Overcast
6:54 AM 62.2 °F 57.9 °F 86% 30.10 in 10.0 mi ENE 4.6 mph - N/A   Overcast
7:15 AM 62.2 °F 57.4 °F 84% 30.10 in 10.0 mi ENE 3.5 mph - N/A   Overcast
7:35 AM 62.1 °F 56.8 °F 83% 30.10 in 10.0 mi East 3.5 mph - N/A   Mostly Cloudy
7:54 AM 62.8 °F 57.4 °F 82% 30.11 in 10.0 mi Calm Calm - N/A   Overcast
8:15 AM 63.1 °F 56.5 °F 79% 30.11 in 10.0 mi ENE 3.5 mph - N/A   Mostly Cloudy
8:34 AM 63.9 °F 56.7 °F 77% 30.11 in 10.0 mi East 3.5 mph - N/A   Scattered Clouds
8:55 AM 65.7 °F 54.5 °F 67% 30.11 in 10.0 mi East 6.9 mph - N/A   Mostly Cloudy
9:15 AM 66.4 °F 54.9 °F 66% 30.11 in 10.0 mi ENE 5.8 mph - N/A   Scattered Clouds
9:34 AM 65.5 °F 54.1 °F 67% 30.12 in 10.0 mi ESE 8.1 mph - N/A   Mostly Cloudy
9:55 AM 65.7 °F 55.0 °F 69% 30.12 in 10.0 mi ESE 6.9 mph - N/A   Overcast
10:15 AM 66.7 °F 56.3 °F 69% 30.12 in 10.0 mi East 3.5 mph - N/A   Overcast
10:34 AM 67.3 °F 55.0 °F 65% 30.12 in 10.0 mi East 8.1 mph - N/A   Overcast
10:55 AM 66.6 °F 56.3 °F 69% 30.13 in 10.0 mi ESE 5.8 mph - N/A   Overcast
11:15 AM 68.2 °F 57.0 °F 67% 30.13 in 10.0 mi Calm Calm - N/A   Overcast
11:34 AM 68.9 °F 57.4 °F 67% 30.13 in 10.0 mi East 3.5 mph - N/A   Overcast
11:55 AM 69.1 °F 57.9 °F 68% 30.14 in 10.0 mi Calm Calm - N/A   Overcast
12:15 PM 70.0 °F 57.4 °F 64% 30.14 in 10.0 mi Calm Calm - N/A   Mostly Cloudy
12:34 PM 71.6 °F 57.4 °F 61% 30.14 in 10.0 mi Calm Calm - N/A   Scattered Clouds
12:55 PM 72.3 °F 57.6 °F 60% 30.13 in 10.0 mi Calm Calm - N/A   Scattered Clouds
1:14 PM 70.5 °F 53.4 °F 55% 30.13 in 10.0 mi Calm Calm - N/A   Mostly Cloudy
1:35 PM 73.6 °F 56.7 °F 55% 30.13 in 10.0 mi North 6.9 mph - N/A   Mostly Cloudy
1:54 PM 73.4 °F 57.0 °F 56% 30.12 in 10.0 mi North 4.6 mph - N/A   Scattered Clouds
2:14 PM 73.4 °F 55.8 °F 54% 30.12 in 10.0 mi North - - N/A   Scattered Clouds
2:35 PM 73.6 °F 57.0 °F 56% 30.12 in 10.0 mi NNE 8.1 mph - N/A   Scattered Clouds
2:54 PM 72.7 °F 57.2 °F 58% 30.12 in 10.0 mi North 8.1 mph - N/A   Clear
3:14 PM 71.6 °F 55.9 °F 58% 30.12 in 10.0 mi North 4.6 mph - N/A   Scattered Clouds
3:35 PM 74.3 °F 55.9 °F 53% 30.11 in 10.0 mi NE 6.9 mph - N/A   Scattered Clouds
3:54 PM 72.7 °F 55.9 °F 56% 30.11 in 10.0 mi NE 6.9 mph - N/A   Mostly Cloudy
4:15 PM 72.7 °F 55.4 °F 55% 30.11 in 10.0 mi North 5.8 mph - N/A   Overcast
4:35 PM 72.7 °F 55.6 °F 55% 30.10 in 10.0 mi North 3.5 mph - N/A   Overcast
4:54 PM 71.2 °F 55.8 °F 58% 30.10 in 10.0 mi NNE 4.6 mph - N/A   Overcast
5:15 PM 72.7 °F 55.8 °F 55% 30.10 in 10.0 mi NNE 5.8 mph - N/A   Overcast
5:34 PM 72.1 °F 55.4 °F 56% 30.10 in 10.0 mi NNE 6.9 mph - N/A   Overcast
5:55 PM 71.8 °F 54.5 °F 54% 30.10 in 10.0 mi NNE 4.6 mph - N/A   Overcast
6:15 PM 71.8 °F 54.7 °F 55% 30.10 in 10.0 mi NNE 6.9 mph - N/A   Mostly Cloudy
6:34 PM 72.0 °F 55.0 °F 55% 30.10 in 10.0 mi North 4.6 mph - N/A   Mostly Cloudy
6:54 PM 72.3 °F 54.5 °F 53% 30.10 in 10.0 mi NE 8.1 mph - N/A   Scattered Clouds
7:15 PM 71.8 °F 54.3 °F 54% 30.09 in 10.0 mi NNE 8.1 mph - N/A   Scattered Clouds
7:34 PM 70.2 °F 54.3 °F 57% 30.10 in 10.0 mi North 3.5 mph - N/A   Scattered Clouds
7:55 PM 68.9 °F 56.7 °F 65% 30.10 in 10.0 mi North 4.6 mph - N/A   Mostly Cloudy
8:15 PM 67.6 °F 57.0 °F 69% 30.10 in 10.0 mi Calm Calm - N/A   Scattered Clouds
8:34 PM 66.9 °F 57.6 °F 72% 30.10 in 10.0 mi Calm Calm - N/A   Scattered Clouds
8:55 PM 66.6 °F 56.5 °F 70% 30.10 in 10.0 mi Calm Calm - N/A   Mostly Cloudy
9:15 PM 64.6 °F 58.3 °F 80% 30.10 in 10.0 mi Calm Calm - N/A   Overcast
9:34 PM 63.7 °F 59.2 °F 85% 30.11 in 5.0 mi Calm Calm - N/A   Haze
9:55 PM 61.7 °F 58.6 °F 90% 30.12 in 10.0 mi Calm Calm - N/A   Clear
10:15 PM 61.3 °F 57.4 °F 87% 30.12 in 10.0 mi Calm Calm - N/A   Clear
10:34 PM 59.0 °F 57.2 °F 94% 30.13 in 10.0 mi Calm Calm - N/A   Clear
10:55 PM 59.7 °F 57.2 °F 91% 30.13 in 10.0 mi Calm Calm - N/A   Clear
11:15 PM 58.6 °F 57.0 °F 94% 30.13 in 10.0 mi Calm Calm - N/A   Clear
11:34 PM 57.4 °F 56.3 °F 96% 30.13 in 10.0 mi Calm Calm - N/A   Clear
11:55 PM 57.9 °F 56.7 °F 96% 30.13 in 10.0 mi Calm Calm - N/A   Mostly Cloudy